This is the latest recevied weather packets stored in our database for station/object KE4AMH. If no packets are shown the sender has not sent any weather packets the latest 10 day(s).
| Time | Temp. | Humidity | Pressure | Rain* | Wind** | Luminosity | Snow |
|---|---|---|---|---|---|---|---|
| 1777474456 | 20° C | 91% | 1013.3 hPa | 0 mm | - | 132 W/m² | - |
| 1777474152 | 20° C | 91% | 1013.2 hPa | 0 mm | - | 99 W/m² | - |
| 1777473850 | 20° C | 91% | 1013.4 hPa | 0 mm | - | 124 W/m² | - |
| 1777473547 | 19.44° C | 92% | 1013.5 hPa | 0 mm | - | 103 W/m² | - |
| 1777473243 | 19.44° C | 91% | 1013.4 hPa | 0 mm | - | 79 W/m² | - |
| 1777472939 | 19.44° C | 92% | 1013.3 hPa | 0 mm | - | 97 W/m² | - |
| 1777472636 | 19.44° C | 91% | 1013.4 hPa | 0 mm | - | 115 W/m² | - |
| 1777472332 | 19.44° C | 91% | 1013.2 hPa | 0 mm | - | 164 W/m² | - |
| 1777472030 | 19.44° C | 91% | 1013.2 hPa | 0 mm | - | 172 W/m² | - |
| 1777471725 | 19.44° C | 94% | 1013.3 hPa | 0 mm | - | 224 W/m² | - |
| 1777471422 | 18.89° C | 94% | 1013.6 hPa | 0 mm | - | 163 W/m² | - |
| 1777471119 | 18.89° C | 94% | 1013.7 hPa | 0 mm | - | 50 W/m² | - |
| 1777470815 | 18.89° C | 94% | 1013.6 hPa | 0 mm | - | 70 W/m² | - |
| 1777470513 | 18.89° C | 94% | 1013.8 hPa | 0 mm | - | 62 W/m² | - |
| 1777470208 | 18.89° C | 93% | 1013.7 hPa | 0 mm | - | 89 W/m² | - |
| 1777469905 | 19.44° C | 93% | 1013.7 hPa | 0 mm | - | 334 W/m² | - |
| 1777469600 | 19.44° C | 94% | 1013.9 hPa | 0 mm | - | 190 W/m² | - |
| 1777469300 | 18.89° C | 95% | 1014 hPa | 0 mm | - | 166 W/m² | - |
| 1777468996 | 18.89° C | 96% | 1014 hPa | 0 mm | - | 148 W/m² | - |
| 1777468691 | 18.33° C | 98% | 1014 hPa | 0 mm | - | 124 W/m² | - |
| 1777468388 | 17.78° C | 98% | 1014.2 hPa | 0 mm | - | 135 W/m² | - |
| 1777468084 | 17.78° C | 99% | 1014.4 hPa | 0 mm | - | 71 W/m² | - |
| 1777467781 | 17.78° C | 99% | 1014.4 hPa | 0 mm | - | 175 W/m² | - |
| 1777467476 | 17.22° C | 99% | 1014.3 hPa | 0 mm | - | 131 W/m² | - |
| 1777467171 | 17.22° C | 99% | 1014.4 hPa | 0 mm | - | 43 W/m² | - |
* Rain latest hour (hover to see other rain measurements)
** Current wind speed in m/s (hover to see current wind gust speed)